This is the latest recevied weather packets stored in our database for station/object KG7DQI-13. If no packets are shown the sender has not sent any weather packets the latest 10 day(s).
| Time | Temp. | Humidity | Pressure | Rain* | Wind** | Luminosity | Snow |
|---|---|---|---|---|---|---|---|
| 1776944731 | -1.67° C | 86% | 918.2 hPa | 0 mm | - | 0 W/m² | - |
| 1776943842 | -1.67° C | 86% | 918.3 hPa | 0 mm | - | 0 W/m² | - |
| 1776942900 | -1.11° C | 87% | 918.4 hPa | 0 mm | - | 0 W/m² | - |
| 1776942033 | -1.11° C | 86% | 918.2 hPa | 0 mm | - | 0 W/m² | - |
| 1776941110 | -0.56° C | 84% | 918.2 hPa | 0 mm | - | 0 W/m² | - |
| 1776940161 | 0° C | 83% | 918.1 hPa | 0 mm | - | 0 W/m² | - |
| 1776939258 | 0.56° C | 81% | 918.1 hPa | 0 mm | - | 0 W/m² | - |
| 1776938335 | 1.11° C | 81% | 918.1 hPa | 0 mm | - | 0 W/m² | - |
| 1776937442 | 1.11° C | 78% | 918 hPa | 0 mm | - | 0 W/m² | - |
| 1776936575 | 2.22° C | 77% | 918.2 hPa | 0 mm | - | 0 W/m² | - |
| 1776935637 | 3.33° C | 75% | 918.2 hPa | 0 mm | - | 0 W/m² | - |
| 1776934770 | 3.89° C | 75% | 918.3 hPa | 0 mm | - | 0 W/m² | - |
| 1776933821 | 4.44° C | 75% | 918.2 hPa | 0 mm | - | 0 W/m² | - |
| 1776932900 | 4.44° C | 75% | 918.3 hPa | 0 mm | - | 0 W/m² | - |
| 1776931953 | 5° C | 73% | 918.2 hPa | 0 mm | - | 0 W/m² | - |
| 1776931070 | 5.56° C | 72% | 918.1 hPa | 0 mm | - | 0 W/m² | - |
| 1776930196 | 5.56° C | 72% | 918.1 hPa | 0 mm | - | 0 W/m² | - |
| 1776929327 | 5.56° C | 73% | 917.7 hPa | 0 mm | - | 0 W/m² | - |
| 1776928404 | 5° C | 73% | 917.8 hPa | 0 mm | - | 0 W/m² | - |
| 1776927496 | 5.56° C | 72% | 917.8 hPa | 0 mm | - | 0 W/m² | - |
| 1776926583 | 5.56° C | 71% | 917.6 hPa | 0 mm | - | 0 W/m² | - |
| 1776925653 | 5.56° C | 70% | 917.5 hPa | 0 mm | - | 0 W/m² | - |
| 1776924788 | 6.11° C | 70% | 917.1 hPa | 0 mm | - | 0 W/m² | - |
| 1776923877 | 5.56° C | 71% | 916.9 hPa | 0 mm | - | 0 W/m² | - |
| 1776922950 | 5° C | 74% | 916.8 hPa | 0 mm | - | 0 W/m² | - |
* Rain latest hour (hover to see other rain measurements)
** Current wind speed in m/s (hover to see current wind gust speed)